Terminal Aerodrome Forecast
Issued by NWS

Home | Current Version | Previous Version | Text Only | Print | Product List | Glossary On
Versions: 1 2 3 4 5 6 7 8 9 10 11 12 13 14 15 16 17 18 19 20 21 22 23
000
FTUS45 KBOI 031135
TAFMYL
TAF
KMYL 031135Z 0312/0412 VRB03KT P6SM VCSH BKN100
     FM031400 VRB03KT P6SM -SHRA BKN050 OVC100
     FM031700 20008KT P6SM BKN080 BKN120
     FM040400 33010KT P6SM SCT120=

USA.gov is the U.S. government's official web portal to all federal, state and local government web resources and services.